Regional Weather Roundup
Issued by NWS Binghamton, NY

Current Version | Previous Version | Text Only | Print | Product List | Glossary On
Versions: 1 2 3 4 5 6 7 8 9 10 11 12 13 14 15 16 17 18 19 20 21 22 23 24 25 26 27 28 29 30 31 32 33 34 35 36 37 38 39 40 41 42 43 44 45 46 47 48 49
000
ASUS41 KBGM 092110
RWRBGM

REGIONAL WEATHER ROUNDUP
NATIONAL WEATHER SERVICE BINGHAMTON NY
400 PM EST TUE FEB 09 2016

Note: "fair" indicates few or no clouds below 12,000 feet with no
significant weather and/or obstructions to visibility.

* = Station(s) that does not report precipitation, such as rain,
snow, etc, also no thunder or fog.

!NYZ009-015>018-022>025-036-037-044>046-055>057-062-092200
...CENTRAL NEW YORK...

CITY           SKY/WX    TMP DP  RH WIND       PRES   REMARKS
BINGHAMTON     CLOUDY    32  26  78 S5        29.45S WCI  27
CORTLAND       CLOUDY    36  30  80 S3        29.47R
DANSVILLE      CLOUDY    39  26  59 W8        29.48R WCI  33
ELMIRA         SNOW      34  33  96 NW6       29.48R VSB 1/2 WCI  29
ITHACA         LGT SNOW  33  30  88 NW8       29.48R FOG     WCI  26
HORNELL        CLOUDY    37  25  60 NW9       29.49R WCI  31
MONTICELLO     CLOUDY    30  23  74 CALM      29.51R
NORWICH        CLOUDY    34  27  75 S5        29.49S WCI  30
ONEONTA        PTSUNNY   30  25  80 W6        29.46R WCI  24
PENN YAN       CLOUDY    36  31  82 SE3       29.47R
ROME           FLURRIES  28  23  81 E6        29.53R WCI  22
SIDNEY         CLOUDY    34  28  80 SW5       29.49S WCI  30
SYRACUSE       LGT SNOW  29  26  89 NE6       29.51R FOG     WCI  23
$$

!PAZ038>040-043-044-047-048-072-092200
...NORTHEAST PENNSYLVANIA...

CITY           SKY/WX    TMP DP  RH WIND       PRES   REMARKS
HAZLETON       LGT SNOW  32  28  86 CALM      29.51R
SCRANTON       LGT SNOW  34  26  72 W3        29.50R
$$
&&
KEY
WCI = WIND CHILL INDEX
VSB = VISIBILITY
HX  = HEAT INDEX
$$



USA.gov is the U.S. government's official web portal to all federal, state and local government web resources and services.